#timestamp,LO_Frequency,Hit,StdDev 
1662613215.2,286047000.0,N
1662613235.0,286047001.0,N
1662613235.9,286047001.0,N
1662613255.8,286046998.5,N
1662613275.6,286046998.5,N
1662613295.4,286046998.6,N
1662613315.3,286046998.5,N
1662613335.1,286046999.0,N
1662613355.9,286046998.5,N
1662613375.7,286046998.3,N
1662613395.5,286046998.9,N
1662613415.4,286046998.1,N
1662613435.2,286046998.3,N
1662613455.0,286046998.4,N
1662613455.9,286046998.4,N
1662613475.8,286046999.2,N
1662613495.6,286046996.5,Y
1662613515.5,286046999.2,P
1662613535.3,286046999.0,P
1662613555.1,286046999.2,P
1662613575.9,286046996.6,Y
1662613595.7,286046999.2,P
1662613615.6,286046999.2,P
1662613635.4,286046999.1,P
1662613655.2,286046999.6,Y
1662613675.1,286046998.6,P
1662613676.0,286046998.6,P
1662613695.8,286046998.6,P
1662613715.6,286046998.3,Y
1662613735.5,286047000.5,P
1662613755.3,286047000.5,N
1662613775.2,286047000.0,N
1662613795.9,286047000.2,N
1662613815.7,286047000.3,N
1662613835.6,286047000.4,N
1662613855.4,286047002.8,Y
1662613875.2,286047002.8,P
1662613895.1,286046999.8,N
1662613896.0,286046999.8,N
1662613915.8,286047000.5,N
1662613935.7,286047001.0,N
1662613955.5,286047000.4,N
1662613975.3,286047000.6,N
1662613995.2,286047000.0,N
1662614015.0,286047001.2,N
1662614015.9,286047001.2,N
1662614035.8,286047001.0,N
1662614055.6,286047000.7,N
1662614075.4,286047001.0,N
1662614095.3,286047000.6,N
1662614115.1,286047000.9,N
1662614135.8,286047000.3,N
1662614155.7,286047000.3,N
1662614175.5,286046999.9,N
1662614195.4,286046999.9,N
1662614215.2,286047001.5,N
1662614235.0,286047000.0,N
1662614235.9,286047000.0,N
1662614255.8,286047000.2,N
1662614275.6,286047000.0,N
1662614295.4,286047002.7,Y
1662614315.3,286047002.4,P
1662614335.1,286047000.3,N
1662614355.9,286046999.9,N
1662614375.7,286046999.9,N
1662614395.5,286046999.8,N
1662614415.4,286047000.9,N
1662614435.2,286046998.5,N
1662614455.0,286046998.8,N
1662614455.9,286046998.8,N
1662614475.8,286046999.0,N
1662614495.6,286046999.2,N
1662614515.5,286046996.5,Y
1662614535.3,286046996.7,P
1662614555.1,286046999.2,N
1662614575.9,286046998.3,N
1662614595.7,286046999.0,N
1662614615.6,286046997.8,N
1662614635.4,286046995.3,Y
1662614655.2,286046999.0,P
1662614675.1,286046998.3,P
1662614676.0,286046998.3,P
1662614695.8,286047000.7,N
1662614715.6,286046999.5,N
1662614735.5,286046998.8,N
1662614755.3,286046998.2,N
1662614775.2,286046998.3,N
1662614795.9,286047000.9,N
1662614815.7,286046999.9,N
1662614835.6,286047002.6,N
1662614855.4,286047001.9,N
1662614875.2,286047004.0,N
1662614895.1,286047003.6,N
1662614896.0,286047003.6,N
1662614915.8,286047009.6,Y
1662614935.7,286047022.4,P
1662614955.5,286047025.7,N
1662614975.3,286047023.4,N
1662614995.2,286047019.8,N
1662615015.0,286047018.8,N
1662615015.9,286047018.8,N
1662615035.8,286047014.3,N
1662615055.6,286047012.9,N
1662615075.4,286047013.9,N
1662615095.3,286047009.7,N
1662615115.1,286047009.9,N
1662615135.8,286047009.8,N
1662615155.7,286047007.8,N
1662615175.5,286047008.2,N
1662615195.4,286047008.1,N
1662615215.2,286047009.1,N
1662615235.0,286047007.8,N
1662615235.9,286047007.8,N
1662615255.8,286047008.9,N
1662615275.6,286047007.8,N
1662615295.5,286047007.9,N
1662615315.3,286047008.3,N
1662615335.1,286047010.8,N
1662615355.9,286047010.3,N
1662615375.7,286047010.8,N
1662615395.5,286047007.9,N
1662615415.4,286047008.3,N
1662615435.2,286047008.5,N
1662615455.1,286047008.3,N
1662615456.0,286047008.3,N
1662615475.8,286047008.3,N
1662615495.6,286047007.7,N
1662615515.5,286047007.9,N
1662615535.3,286047010.7,Y
1662615555.1,286046998.3,P
1662615575.9,286046998.8,N
1662615595.7,286046999.1,N
1662615615.6,286046999.2,N
1662615635.4,286046997.1,N
1662615655.2,286046997.5,N
1662615675.1,286046997.8,N
1662615676.0,286046997.8,N
1662615695.8,286046996.7,N
1662615715.6,286046996.5,N
1662615735.5,286046996.9,N
1662615755.3,286046996.7,N
1662615775.2,286046996.5,N
1662615795.9,286046997.3,N
1662615815.7,286046997.3,N
1662615835.6,286046997.8,N
1662615855.4,286046997.7,N
1662615875.2,286046997.9,N
1662615895.1,286046997.6,N
1662615896.0,286046997.6,N
1662615915.8,286046996.7,N
1662615935.7,286046997.2,N
1662615955.5,286046997.8,N
1662615975.3,286046997.2,N
1662615995.2,286046997.7,N
1662616015.0,286046996.6,N
1662616015.9,286046996.6,N
1662616035.8,286046998.9,N
1662616055.6,286046999.2,N
1662616075.4,286046997.1,N
1662616095.3,286046997.8,N
1662616115.1,286046997.1,Y
1662616135.8,286047000.5,P
1662616155.7,286047000.3,N
1662616175.5,286047000.2,N
1662616195.4,286047000.4,N
1662616215.2,286047000.8,N
1662616235.0,286047000.4,N
1662616235.9,286047000.4,N
1662616255.8,286047000.3,N
1662616275.6,286047002.0,N
1662616295.4,286047002.3,N
1662616315.3,286047002.4,N
1662616335.1,286047001.9,N
1662616355.9,286047002.6,N
1662616375.7,286046999.9,N
1662616395.5,286047002.0,N
1662616415.4,286047001.5,N
1662616435.2,286047001.7,N
1662616455.0,286047002.4,N
1662616455.9,286047002.4,N
1662616475.8,286046999.7,N
1662616495.6,286047002.7,N
1662616515.5,286047000.0,N
1662616535.3,286047001.5,N
1662616555.1,286047002.1,N
1662616575.9,286047002.5,N
1662616595.7,286047002.7,N
1662616615.5,286047001.8,N
1662616635.4,286047001.5,N
1662616655.2,286047003.0,N
1662616675.1,286047002.2,N
1662616676.0,286047002.2,N
1662616695.8,286047000.5,N
1662616715.6,286047000.5,N
1662616735.5,286047000.4,N
1662616755.3,286047000.1,N
1662616775.2,286047002.0,N
1662616795.9,286047002.6,N
